Location: *
(50.9167°S, 179.4000°W)
Time: 04:07:14
(UTC+00:00)

ATLAS 2AS CENTAUR R/B - Pass Details

Date: 21 June 2024
Orbit: 1019 x 1192 km, 63.7° (Epoch: 21 July)

Event Time Altitude Azimuth Distance (km) Brightness Sun altitude
Exits shadow 15:10:01 23° 151° (SSE) 2,232 4.6 -44.3°
Drops below altitude 10° 15:12:59 10° 134° (SE) 3,054 5.6 -43.9°
Sets 15:16:04 0° 124° (SE) 4,041 6.5 -43.4°
